User: anonymous   Login
Location: Unspecified
(0.0000°N, 0.0000°E)
Time: 09:52:02
(UTC+00:00)
Language:

SBIRS GEO 1 (USA 230) - Orbit

View from above orbital plane
View from above orbital plane
View from above satellite
View from above satellite

Ground track
Ground track

The orbit data is extracted from the following two-line orbital elements,

1 37481U 11019A   16226.73522486 0.00000000  00000-0  00000-0 0    02
2 37481   4.0458 321.2838 0003975 318.1002  41.8678  1.00270000    06
Epoch (UTC): 13 August 2016 17:38:43
Eccentricity: 0.0003975
inclination: 4.0458°
perigee height: 35770 km
apogee height: 35803 km
right ascension of ascending node: 321.2838°
argument of perigee: 318.1002°
revolutions per day: 1.00270000
mean anomaly at epoch: 41.8678°
orbit number at epoch: 0

The dashed part of the orbit path shows where the satellite is in the earth's shadow,  

DLR